Weather Roundup
Issued by NWS

Home | Current Version | Previous Version | Graphics & Text | Print | Product List | Glossary Off
Versions: 1 2 3 4 5 6 7 8 9 10 11 12 13 14 15 16 17 18 19 20 21 22 23 24 25 26 27 28 29 30 31 32 33 34 35 36 37 38 39 40 41 42 43 44 45 46 47 48 49 50

291
NZUS93 KARX 290759
HRRWXR

CURRENT HOURLY OBSERVATIONS ACROSS
MUCH OF THE UPPER MISSISSIPPI VALLEY
NATIONAL WEATHER SERVICE LA CROSSE WI
300 AM CDT THU JUN 29 2017


...SOUTHEAST MINNESOTA...


CITY           SKY/WX    TMP DP  RH WIND       PRES   REMARKS
ROCHESTER      CLEAR     63  61  93 W8        29.68S
ROCHESTER/MAYO FAIR      65  63  94 W9        29.66S
WINONA         CLEAR     70  63  78 W7G17     29.64R
AUSTIN         CLEAR     63  61  94 SW5       29.70R
ALBERT LEA     CLEAR     64  61  88 CALM      29.70R
DODGE CENTER   CLEAR     63  59  88 W8        29.67F
PRESTON        CLEAR     64  62  93 W10       29.68R
OWATONNA       CLEAR     63  61  94 W7        29.68R
FARIBAULT      PTCLDY    63  61  94 W6        29.67S
$$

...ELSEWHERE IN MINNESOTA...


CITY           SKY/WX    TMP DP  RH WIND       PRES   REMARKS
MINNEAPOLIS    MOCLDY    68  59  73 NW13      29.63S
INTNL FALLS    LGT RAIN  59  57  93 CALM      29.65S FOG
DULUTH         LGT RAIN  59  59 100 NW7       29.55R
RED WING       CLEAR     66  57  72 W7        29.62R
REDWOOD FALLS  CLEAR     62  59  90 W5        29.70S
MANKATO        CLEAR     64  60  87 W6        29.69R
WORTHINGTON    CLEAR     61  58  90 NW5       29.75S
FAIRMONT       CLEAR     63  60  90 NW3       29.73R
$$

...SOUTHWEST WISCONSIN...


CITY           SKY/WX    TMP DP  RH WIND       PRES   REMARKS
LA CROSSE      CLEAR     68  65  90 S7        29.64R
PRAIRIE DU CHI CLOUDY    64  63  96 CALM      29.67S FOG
BOSCOBEL       CLOUDY    66  64  93 CALM      29.67R
LONE ROCK      NOT AVBL
PLATTEVILLE    CLOUDY    68  68 100 S6        29.70R
FORT MC COY    CLEAR     62  62  99 CALM      29.63S
MAUSTON-NEW LI SUNNY     67  64  89 SW9G17    29.61S
VIROQUA        FAIR      64  64 100 SW9       29.66S
WIS DELLS      CLOUDY    66  63  90 SW5       29.65S
$$

...ELSEWHERE IN WISCONSIN...


CITY           SKY/WX    TMP DP  RH WIND       PRES   REMARKS
MILWAUKEE      CLOUDY    66  64  93 S16G28    29.68F
MADISON        CLOUDY    67  65  93 S9        29.68R
GREEN BAY      CLOUDY    67  65  93 S12       29.62S
EAU CLAIRE     NOT AVBL
BLACK RVR FLS  FAIR      64  64 100 CALM      29.60F
MEDFORD        CLOUDY    62  61  96 SW8       29.59S
WAUSAU         CLOUDY    65  64  97 SW6       29.58S
WIS RAPIDS     MOCLDY    65  63  93 SW8       29.62S
MARSHFIELD     PTCLDY    64  62  93 W8        29.59S
RICE LAKE      CLOUDY    65  62  90 W9        29.59S
$$

...NORTHEAST IOWA...


CITY           SKY/WX    TMP DP  RH WIND       PRES   REMARKS
WATERLOO       CLOUDY    65  63  93 SW5       29.71R
DUBUQUE        CLOUDY    69  65  86 SW15      29.70R
DECORAH        PTCLDY    64  64 100 CALM      29.67S
MASON CITY     CLEAR     65  63  93 SW6       29.73R
CHARLES CITY   CLEAR     64  64 100 W6        29.71R
OELWEIN        CLOUDY    64  63  94 S7        29.71R
$$

...ELSEWHERE IN IOWA...


CITY           SKY/WX    TMP DP  RH WIND       PRES   REMARKS
DES MOINES     CLOUDY    68  66  93 S9        29.73R
IOWA CITY      MOCLDY    72  62  71 SW15G28   29.76R
FORT DODGE     CLEAR     64  63  94 NW3       29.74R
MARSHALLTOWN   CLOUDY    68  66  93 S12       29.72R
CEDAR RAPIDS   CLOUDY    69  65  86 SW14G23   29.72R
$$

...NORTHERN ILLINOIS...


CITY           SKY/WX    TMP DP  RH WIND       PRES   REMARKS
CHICAGO-OHARE  CLOUDY    68  64  87 S10       29.74F
CHICAGO-MIDWAY MOCLDY    73  64  73 S9        29.76F
MOLINE         CLOUDY    73  60  63 SW7       29.73S
ROCKFORD       CLOUDY    69  65  86 S7        29.71F
PEORIA         CLOUDY    69  65  86 SW14      29.74F
$$

NOTE: "FAIR" INDICATES FEW OR NO CLOUDS BELOW 12,000 FEET WITH NO
SIGNIFICANT WEATHER AND/OR OBSTRUCTIONS TO VISIBILITY. WIND
SPEEDS ARE IN MILES-PER-HOUR.




USA.gov is the U.S. government's official web portal to all federal, state and local government web resources and services.